This is the latest recevied weather packets stored in our database for station/object KC5DAQ-29. If no packets are shown the sender has not sent any weather packets the latest 10 day(s).
| Time | Temp. | Humidity | Pressure | Rain* | Wind** | Luminosity | Snow |
|---|---|---|---|---|---|---|---|
| 1777395491 | 30° C | 100% | 1011.7 hPa | 0 mm | - | - | - |
| 1777395431 | 30° C | 100% | 1011.6 hPa | 0 mm | - | 993 W/m² | - |
| 1777395371 | 30° C | 100% | 1011.7 hPa | 0 mm | - | 993 W/m² | - |
| 1777395310 | 30° C | 100% | 1011.7 hPa | 0 mm | - | 993 W/m² | - |
| 1777395250 | 29.44° C | 100% | 1011.6 hPa | 0 mm | - | 993 W/m² | - |
| 1777395191 | 29.44° C | 100% | 1011.7 hPa | 0 mm | - | 993 W/m² | - |
| 1777395131 | 29.44° C | 100% | 1011.7 hPa | 0 mm | - | 993 W/m² | - |
| 1777395070 | 29.44° C | 100% | 1011.5 hPa | 0 mm | - | 993 W/m² | - |
| 1777395011 | 29.44° C | 100% | 1011.6 hPa | 0 mm | - | 993 W/m² | - |
| 1777394950 | 29.44° C | 100% | 1011.7 hPa | 0 mm | - | 993 W/m² | - |
| 1777394890 | 29.44° C | 100% | 1011.7 hPa | 0 mm | - | 993 W/m² | - |
| 1777394831 | 29.44° C | 100% | 1011.7 hPa | 0 mm | - | 1008 W/m² | - |
| 1777394771 | 29.44° C | 100% | 1011.7 hPa | 0 mm | - | 756 W/m² | - |
| 1777394710 | 29.44° C | 100% | 1011.7 hPa | 0 mm | - | 756 W/m² | - |
| 1777394650 | 29.44° C | 100% | 1011.7 hPa | 0 mm | - | 756 W/m² | - |
| 1777394591 | 29.44° C | 100% | 1011.7 hPa | 0 mm | - | 756 W/m² | - |
| 1777394531 | 29.44° C | 100% | 1011.7 hPa | 0 mm | - | 756 W/m² | - |
| 1777394470 | 29.44° C | 100% | 1011.8 hPa | 0 mm | - | 756 W/m² | - |
| 1777394409 | 29.44° C | 100% | 1011.7 hPa | 0 mm | - | 891 W/m² | - |
| 1777394351 | 29.44° C | 100% | 1011.7 hPa | 0 mm | - | 891 W/m² | - |
| 1777394291 | 29.44° C | 100% | 1011.7 hPa | 0 mm | - | 891 W/m² | - |
| 1777394230 | 29.44° C | 100% | 1011.8 hPa | 0 mm | - | 891 W/m² | - |
| 1777394170 | 29.44° C | 100% | 1011.8 hPa | 0 mm | - | 935 W/m² | - |
| 1777394110 | 29.44° C | 100% | 1011.9 hPa | 0 mm | - | 368 W/m² | - |
| 1777394051 | 29.44° C | 100% | 1011.9 hPa | 0 mm | - | 308 W/m² | - |
* Rain latest hour (hover to see other rain measurements)
** Current wind speed in m/s (hover to see current wind gust speed)